Regional Weather Roundup
Issued by NWS Binghamton, NY

Home | Current Version | Previous Version | Text Only | Print | Product List | Glossary On
Versions: 1 2 3 4 5 6 7 8 9 10 11 12 13 14 15 16 17 18 19 20 21 22 23 24 25 26 27 28 29 30 31 32 33 34 35 36 37 38 39 40 41 42 43 44 45 46 47 48 49 50
000
ASUS41 KBGM 220710
RWRBGM

REGIONAL WEATHER ROUNDUP
NATIONAL WEATHER SERVICE BINGHAMTON NY
300 AM EDT SAT JUL 22 2017

Note: "fair" indicates few or no clouds below 12,000 feet with no
significant weather and/or obstructions to visibility.

* = Station(s) that does not report precipitation, such as rain,
snow, etc, also no thunder or fog.

NYZ009-015>018-022>025-036-037-044>046-055>057-062-220800
...Central New York...

CITY           SKY/WX    TMP DP  RH WIND       PRES   REMARKS
Binghamton     CLEAR     65  62  90 W3        29.97F
Cortland       FAIR      61  61 100 CALM      29.97S
Dansville      CLOUDY    67  63  87 SE5       29.94F
Elmira         PTCLDY    61  37  41 W5        29.94F HAZE
Seneca Falls   SUNNY     68  61  77 SW3       29.92F
Ithaca         CLOUDY    62  62 100 E3        29.96F FOG
Hamilton       CLEAR     61  57  88 CALM      29.95F
Hornell        CLEAR     64  63  94 CALM      29.99F
Monticello     NOT AVBL
Norwich        CLEAR     61  57  88 CALM      29.96F
Oneonta        CLEAR     64 N/A N/A W3        29.97F
Penn Yan       CLOUDY    69  63  81 S5        29.95F
Rome           CLOUDY    62  61  96 CALM      29.92F
Sidney         CLOUDY   N/A N/A N/A CALM      29.95F FOG
Syracuse       CLOUDY    69  59  70 SW8       29.90F
$$

PAZ038>040-043-044-047-048-072-220800
...Northeast Pennsylvania...

CITY           SKY/WX    TMP DP  RH WIND       PRES   REMARKS
Hazleton         N/A     70  64  83 NW3       30.00F
Scranton       PTCLDY    71  70  96 E5        29.94F
$$
&&
KEY
WCI = Wind Chill Index
VSB = Visibility
HX  = Heat Index
$$



USA.gov is the U.S. government's official web portal to all federal, state and local government web resources and services.